[[{"header":{"parameterUnit":"m.s-1","parameterCategory":2,"la1":30.2991,"la2":30.254,"lo1":-89.0895,"lo2":-89.0444,"dy":0.0017,"dx":0.0017,"nx":28,"ny":28,"refTime":"2025-11-06T09:00:00:Z","depth":"0","parameterNumber":2,"parameterNumberName":"U-component_of_CURRENTS"},"data":[0,0,0,0,0,0,0,0,0,0,0,0,0,0,0,0,0,0,0,0,0,0,0,0,0,0,0,0,0,0,0,0,0,0,0,0,0,0,0,0,0,0,0,0,0,0,0,0,0,0,0,0,0,0,0,0,0,0,0.2474,0.2475,0,0.2538,0.2538,0.2538,0.255,0.255,0.255,0.255,0.2562,0.2563,0.2563,0,0,0,0,0,0,0,0,0,0,0,0,0,0.2362,0.2363,0.2474,0.2475,0.2476,0.2538,0.2538,0.2538,0.255,0.255,0.255,0.2549,0.2562,0.2563,0.2563,0,0,0,0,0,0,0,0,0,0,0,0,0,0.2412,0.2364,0.2474,0.2493,0.2495,0.2537,0.2538,0.2539,0.255,0.255,0.255,0.2549,0.2562,0.2563,0.2563,0.2571,0,0,0.2565,0.2566,0,0,0,0,0,0,0,0,0.2409,0.2416,0.2489,0.2492,0.2495,0.2539,0.2503,0.2548,0.255,0.2525,0.255,0.2549,0.2553,0.2554,0.2561,0.2572,0.2572,0.2565,0.2566,0.2566,0.2566,0,0,0,0,0,0,0,0.2406,0.2413,0.2495,0.249,0.2494,0.2498,0.2504,0.2512,0.2535,0.2527,0.2529,0.2543,0.2553,0.256,0.2561,0.2572,0.2565,0.2566,0.2566,0.2567,0.2615,0.2616,0,0,0,0,0,0,0.2407,0.241,0.2493,0.2497,0.2456,0.2501,0.2508,0.2522,0.2536,0.2539,0.2543,0.2543,0.2559,0.2561,0.2562,0.2592,0.2566,0.2567,0.2567,0.2615,0.2616,0.2617,0,0,0,0,0,0,0.2405,0.2414,0.249,0.2458,0.2469,0.2503,0.2519,0.2523,0.2532,0.255,0.2551,0.2548,0.2559,0.2561,0.2577,0.2592,0.2567,0.2568,0.2614,0.2615,0.2616,0.2639,0,0,0,0,0,0,0.2401,0.2413,0.242,0.2459,0.2471,0.2519,0.2519,0.2525,0.2543,0.2544,0.2554,0.2555,0.2559,0.2576,0.2578,0.2592,0.2568,0.2612,0.2614,0.2616,0.2637,0.2641,0.2644,0,0,0,0,0,0.2397,0.2409,0.242,0.2431,0.2481,0.252,0.2526,0.2547,0.2543,0.2552,0.2561,0.2555,0.2588,0.2578,0.2579,0.2594,0.2612,0.2614,0.2616,0.2636,0.264,0.2644,0,0,0,0,0,0,0.236,0.2413,0.2426,0.2452,0.2486,0.2524,0.2535,0.2547,0.2561,0.2558,0.2565,0.2567,0.259,0.2588,0.2577,0.2614,0.2599,0.2602,0.2614,0.2618,0.2622,0.2616,0.2569,0,0,0,0,0,0.2358,0.2381,0.2431,0.2449,0.2468,0.2499,0.2516,0.2532,0.2554,0.256,0.2571,0.2582,0.26,0.2605,0.262,0.2635,0.2649,0.2647,0.2651,0.2654,0.2651,0.267,0.2675,0.2623,0.2623,0.2623,0,0,0.2347,0.238,0.2392,0.2443,0.2467,0.2502,0.2507,0.2536,0.256,0.2558,0.2584,0.2596,0.2609,0.2633,0.2642,0.2632,0.2685,0.2656,0.2658,0.2654,0.2673,0.2678,0.2682,0.2625,0.2624,0.2624,0,0,0.2345,0.2368,0.2392,0.2426,0.2474,0.2498,0.2507,0.2549,0.2561,0.2591,0.26,0.2617,0.2642,0.2656,0.2665,0.2695,0.2705,0.2703,0.2711,0.2731,0.2735,0.2739,0.2799,0.2808,0.27,0.27,0.27,0,0.2331,0.2372,0.2403,0.2439,0.2471,0.2497,0.2532,0.2551,0.2591,0.2606,0.2601,0.2647,0.2653,0.2686,0.2698,0.2702,0.2728,0.2693,0.2735,0.2739,0.2742,0.2803,0.2812,0.2702,0.2702,0.2701,0.2701,0,0.2355,0.239,0.2405,0.2463,0.2496,0.2528,0.2571,0.2594,0.261,0.2631,0.2665,0.2676,0.2704,0.271,0.2712,0.2744,0.2763,0.274,0.2722,0.2749,0.2812,0.2821,0.2704,0.2703,0.2703,0.2702,0,0,0.2328,0.2408,0.2415,0.2447,0.2515,0.2542,0.2585,0.2634,0.2658,0.2682,0.2717,0.2737,0.2739,0.275,0.2755,0.2764,0.282,0.2761,0.2762,0.2819,0.2901,0.3039,0.3062,0.2803,0.2804,0.2804,0.2949,0,0.2342,0.2407,0.2448,0.2505,0.2543,0.2588,0.2622,0.2664,0.2696,0.2733,0.2743,0.2775,0.2756,0.2773,0.278,0.2815,0.284,0.2786,0.2868,0.2872,0.2987,0.3075,0.3027,0.3162,0.2958,0.2959,0.2961,0,0.2358,0.2404,0.246,0.2532,0.2552,0.258,0.2647,0.2684,0.2738,0.2763,0.2794,0.2814,0.2853,0.2818,0.2887,0.2856,0.288,0.2895,0.2901,0.3022,0.3026,0.3095,0.3186,0.3082,0.2975,0.2974,0.2973,0,0.2327,0.2411,0.2452,0.248,0.2562,0.2585,0.2622,0.2682,0.2728,0.2782,0.2832,0.2863,0.2904,0.2923,0.2993,0.2935,0.3082,0.3004,0.3153,0.3163,0.3137,0.3145,0.313,0.3041,0.304,0.304,0.3039,0,0.233,0.2363,0.2434,0.2458,0.2501,0.2559,0.261,0.2651,0.2728,0.2797,0.2836,0.292,0.2928,0.3026,0.304,0.3181,0.3132,0.319,0.3217,0.3152,0.3159,0.3078,0.3014,0.3045,0.3044,0.3043,0.3042,0,0.2291,0.2341,0.2388,0.2463,0.2486,0.2509,0.2607,0.2645,0.2726,0.2827,0.2856,0.298,0.3134,0.3197,0.3271,0.3282,0.3304,0.3419,0.3381,0.3403,0.3426,0.3366,0.3309,0.3202,0.3589,0.3593,0.3597,0,0.2273,0.2294,0.2374,0.2392,0.2422,0.2477,0.2516,0.2617,0.268,0.2886,0.2936,0.3132,0.328,0.35,0.3581,0.3697,0.3496,0.368,0.3548,0.3467,0.3416,0.3237,0.3132,0.3523,0.3526,0.3528,0.353,0,0.223,0.2254,0.2286,0.2339,0.2374,0.2436,0.2508,0.2566,0.2711,0.2833,0.3028,0.3176,0.3477,0.3613,0.3809,0.3847,0.3533,0.3735,0.3618,0.3369,0.3196,0.3094,0.3415,0.3551,0.3548,0.3547,0.3546,0.3545,0.2171,0.2182,0.2222,0.2272,0.2314,0.2367,0.2399,0.2512,0.2631,0.2815,0.3018,0.3238,0.3523,0.3828,0.3851,0.3871,0.3753,0.373,0.3672,0.3502,0.337,0.3798,0.3988,0.3988,0.3989,0.3989,0.3989,0,0.2102,0.2128,0.2161,0.2207,0.2233,0.229,0.2376,0.2412,0.2531,0.2773,0.2964,0.33,0.352,0.3704,0.3875,0.3777,0.3537,0.3661,0.3314,0.3214,0.358,0.3549,0.3691,0.3691,0.3691,0.3691,0.3691,0.3691,0.2056,0.2065,0.2103,0.2119,0.2153,0.2169,0.2205,0.2277,0.2427,0.2655,0.2865,0.308,0.343,0.3738,0.3732,0.3632,0.3266,0.3228,0.3115,0.3312,0.3308,0.3305,0.3258,0.3336,0.3335,0.2613,0.2608,0.2604]},{"header":{"parameterUnit":"m.s-1","parameterCategory":2,"la1":30.2991,"la2":30.254,"lo1":-89.0895,"lo2":-89.0444,"dy":0.0017,"dx":0.0017,"nx":28,"ny":28,"refTime":"2025-11-06T09:00:00:Z","depth":"0","parameterNumber":3,"parameterNumberName":"V-component_of_CURRENTS"},"data":[0,0,0,0,0,0,0,0,0,0,0,0,0,0,0,0,0,0,0,0,0,0,0,0,0,0,0,0,0,0,0,0,0,0,0,0,0,0,0,0,0,0,0,0,0,0,0,0,0,0,0,0,0,0,0,0,0,0,-0.0633,-0.0633,0,-0.0703,-0.0704,-0.0705,-0.0746,-0.0746,-0.0747,-0.0747,-0.0825,-0.0827,-0.0828,0,0,0,0,0,0,0,0,0,0,0,0,0,-0.0561,-0.0562,-0.0632,-0.0633,-0.0635,-0.0703,-0.0704,-0.0705,-0.0746,-0.0746,-0.0747,-0.0747,-0.0824,-0.0826,-0.0828,0,0,0,0,0,0,0,0,0,0,0,0,0,-0.0606,-0.0562,-0.0632,-0.0665,-0.0669,-0.0703,-0.0704,-0.0705,-0.0746,-0.0746,-0.0747,-0.0747,-0.0824,-0.0826,-0.0829,-0.0835,0,0,-0.0837,-0.0838,0,0,0,0,0,0,0,0,-0.0603,-0.0608,-0.0659,-0.0663,-0.0667,-0.0718,-0.0708,-0.0749,-0.0746,-0.0714,-0.0747,-0.0748,-0.0791,-0.0796,-0.0805,-0.0838,-0.0842,-0.0837,-0.0839,-0.084,-0.084,0,0,0,0,0,0,0,-0.06,-0.0606,-0.0659,-0.066,-0.0665,-0.0686,-0.0692,-0.0716,-0.0747,-0.0717,-0.0721,-0.0732,-0.0793,-0.0803,-0.0808,-0.0843,-0.0837,-0.0839,-0.0841,-0.0842,-0.0919,-0.092,0,0,0,0,0,0,-0.0593,-0.0603,-0.0656,-0.0661,-0.0638,-0.0686,-0.0694,-0.0699,-0.0747,-0.0755,-0.0731,-0.0733,-0.0798,-0.0804,-0.081,-0.0865,-0.084,-0.0842,-0.0844,-0.0919,-0.092,-0.092,0,0,0,0,0,0,-0.0591,-0.0597,-0.0654,-0.0635,-0.0644,-0.0687,-0.0693,-0.0701,-0.0713,-0.0758,-0.0766,-0.0737,-0.0799,-0.0807,-0.0843,-0.0866,-0.0843,-0.0846,-0.0918,-0.0919,-0.092,-0.0945,0,0,0,0,0,0,-0.0589,-0.0596,-0.0592,-0.0634,-0.0645,-0.0675,-0.0693,-0.0702,-0.072,-0.0724,-0.0766,-0.0773,-0.08,-0.0839,-0.0846,-0.087,-0.0848,-0.0918,-0.0919,-0.092,-0.0943,-0.0946,-0.0949,0,0,0,0,0,-0.0586,-0.0576,-0.0591,-0.0598,-0.064,-0.0675,-0.0682,-0.0713,-0.072,-0.0726,-0.076,-0.0772,-0.0849,-0.0842,-0.0849,-0.0875,-0.0917,-0.0918,-0.092,-0.0942,-0.0946,-0.0949,0,0,0,0,0,0,-0.0535,-0.0581,-0.0598,-0.0601,-0.0638,-0.0683,-0.0688,-0.0709,-0.074,-0.0741,-0.078,-0.079,-0.0832,-0.0843,-0.0833,-0.0897,-0.0884,-0.0887,-0.0899,-0.0902,-0.0905,-0.0904,-0.085,0,0,0,0,0,-0.0524,-0.0531,-0.0582,-0.0583,-0.0601,-0.0643,-0.0659,-0.0682,-0.0718,-0.0731,-0.0765,-0.08,-0.0841,-0.0862,-0.0892,-0.0925,-0.0928,-0.0944,-0.0947,-0.0949,-0.0953,-0.0985,-0.0991,-0.0924,-0.0924,-0.0924,0,0,-0.0504,-0.0529,-0.0533,-0.0573,-0.0601,-0.0634,-0.0653,-0.0676,-0.0706,-0.0734,-0.0776,-0.0808,-0.085,-0.0896,-0.0914,-0.091,-0.0966,-0.0951,-0.0953,-0.0955,-0.0987,-0.0994,-0.1,-0.0924,-0.0924,-0.0924,0,0,-0.0473,-0.0492,-0.0496,-0.0531,-0.0576,-0.0612,-0.0618,-0.0669,-0.0695,-0.0737,-0.0773,-0.082,-0.0867,-0.0917,-0.0945,-0.0976,-0.0978,-0.0979,-0.0999,-0.103,-0.1036,-0.1042,-0.1037,-0.1042,-0.0983,-0.0983,-0.0983,0,-0.0447,-0.0462,-0.0501,-0.0523,-0.055,-0.0603,-0.0623,-0.0664,-0.072,-0.0742,-0.075,-0.0844,-0.0883,-0.0957,-0.0979,-0.0986,-0.0985,-0.0986,-0.1035,-0.104,-0.1046,-0.1039,-0.1044,-0.0984,-0.0984,-0.0984,-0.0984,0,-0.0434,-0.045,-0.0455,-0.0508,-0.0542,-0.0562,-0.0633,-0.0663,-0.0699,-0.0744,-0.081,-0.0871,-0.0924,-0.0954,-0.0984,-0.1046,-0.1027,-0.1033,-0.1028,-0.1054,-0.1045,-0.105,-0.0986,-0.0986,-0.0985,-0.0985,0,0,-0.0365,-0.0431,-0.0434,-0.0449,-0.0534,-0.055,-0.0613,-0.0676,-0.0692,-0.0774,-0.0805,-0.0916,-0.0944,-0.0977,-0.1023,-0.107,-0.1114,-0.107,-0.1071,-0.1066,-0.1155,-0.107,-0.1066,-0.1128,-0.113,-0.1131,-0.1127,0,-0.0343,-0.036,-0.0415,-0.0441,-0.0457,-0.0534,-0.0576,-0.0642,-0.0696,-0.0739,-0.0839,-0.0877,-0.0956,-0.0964,-0.1041,-0.108,-0.113,-0.1112,-0.1129,-0.1128,-0.1052,-0.1071,-0.0994,-0.0978,-0.1132,-0.1132,-0.1133,0,-0.0318,-0.033,-0.0341,-0.0389,-0.0403,-0.043,-0.0485,-0.0532,-0.0629,-0.0664,-0.0756,-0.0815,-0.0917,-0.0957,-0.1083,-0.1064,-0.1119,-0.116,-0.1161,-0.1078,-0.1053,-0.0981,-0.0981,-0.118,-0.114,-0.114,-0.1139,0,-0.0234,-0.0281,-0.0276,-0.0298,-0.0364,-0.0375,-0.0415,-0.05,-0.0508,-0.0606,-0.0594,-0.0755,-0.0769,-0.0906,-0.1005,-0.1041,-0.1105,-0.1157,-0.1141,-0.1134,-0.107,-0.1054,-0.1266,-0.1251,-0.1251,-0.1251,-0.1251,0,-0.019,-0.0187,-0.0225,-0.0222,-0.0199,-0.0286,-0.0273,-0.0333,-0.0387,-0.0352,-0.0533,-0.0503,-0.0753,-0.082,-0.0964,-0.1038,-0.1072,-0.1143,-0.1134,-0.1072,-0.1057,-0.1226,-0.1348,-0.1251,-0.1251,-0.1251,-0.1251,0,-0.0108,-0.014,-0.0121,-0.0155,-0.0155,-0.0136,-0.0155,-0.0137,-0.0203,-0.0156,-0.0167,-0.0298,-0.0369,-0.0592,-0.0764,-0.0917,-0.1115,-0.1052,-0.0941,-0.0921,-0.1112,-0.1236,-0.1402,-0.1486,-0.1058,-0.1056,-0.1054,0,-0.0069,-0.0048,-0.0037,-0.0,-0.0009,0.0009,0.0037,-0.0031,0.0012,0.0016,0.0077,0.0,0.0018,-0.0226,-0.0514,-0.0744,-0.0984,-0.0857,-0.0939,-0.1112,-0.1247,-0.1349,-0.1418,-0.0861,-0.0858,-0.0855,-0.0853,0,0.002,0.0031,0.0053,0.0135,0.0183,0.0232,0.0276,0.0349,0.0323,0.0399,0.052,0.0537,0.0308,0.0126,-0.0235,-0.0441,-0.098,-0.0809,-0.1039,-0.1152,-0.1228,-0.1305,-0.086,-0.083,-0.0833,-0.0834,-0.0836,-0.0837,0.0102,0.0152,0.0201,0.0281,0.0351,0.0468,0.0555,0.0648,0.0785,0.0941,0.0919,0.1034,0.0668,0.0205,-0.0117,-0.0707,-0.0776,-0.0899,-0.1042,-0.1136,-0.1212,-0.0689,-0.0619,-0.062,-0.062,-0.0621,-0.0622,0,0.0212,0.0263,0.0344,0.0458,0.0578,0.0571,0.073,0.0845,0.1088,0.1262,0.1405,0.1354,0.0907,0.0337,-0.0431,-0.0858,-0.1091,-0.1142,-0.1325,-0.1394,-0.0962,-0.0948,-0.0883,-0.0883,-0.0882,-0.0882,-0.0882,-0.0882,0.0277,0.0382,0.0424,0.0645,0.0733,0.0908,0.102,0.121,0.1371,0.1653,0.1782,0.1832,0.1395,-0.0009,-0.0991,-0.1238,-0.1614,-0.1637,-0.1862,-0.1625,-0.1616,-0.1608,-0.1628,-0.1706,-0.1707,-0.2222,-0.2228,-0.2232]}],[{"header":{"parameterUnit":"m.s-1","parameterCategory":2,"la1":30.2991,"la2":30.254,"lo1":-89.0895,"lo2":-89.0444,"dy":0.0017,"dx":0.0017,"nx":28,"ny":28,"refTime":"2025-11-06T09:00:00:Z","depth":"2","parameterNumber":2,"parameterNumberName":"U-component_of_CURRENTS"},"data":[0,0,0,0,0,0,0,0,0,0,0,0,0,0,0,0,0,0,0,0,0,0,0,0,0,0,0,0,0,0,0,0,0,0,0,0,0,0,0,0,0,0,0,0,0,0,0,0,0,0,0,0,0,0,0,0,0,0,0.2193,0.2194,0,0.2229,0.2229,0.2229,0.2256,0.2256,0.2257,0.2258,0.2298,0.2298,0.2298,0,0,0,0,0,0,0,0,0,0,0,0,0,0.209,0.2092,0.2193,0.2194,0.2195,0.2229,0.2229,0.2229,0.2255,0.2256,0.2257,0.2258,0.2298,0.2298,0.2298,0,0,0,0,0,0,0,0,0,0,0,0,0,0.2125,0.2092,0.2193,0.2217,0.222,0.2229,0.2229,0.2229,0.2255,0.2256,0.2258,0.2259,0.2297,0.2298,0.2298,0.2275,0,0,0.2299,0.23,0,0,0,0,0,0,0,0,0.2123,0.2128,0.2213,0.2216,0.2219,0.2245,0.2208,0.2247,0.2255,0.2235,0.2258,0.226,0.2284,0.2285,0.228,0.2277,0.2279,0.23,0.23,0.23,0.23,0,0,0,0,0,0,0,0.2121,0.2127,0.22,0.2214,0.2218,0.2208,0.2214,0.2215,0.2246,0.2237,0.224,0.2255,0.2285,0.2279,0.2281,0.2279,0.23,0.23,0.23,0.23,0.234,0.2341,0,0,0,0,0,0,0.2132,0.2125,0.2199,0.2202,0.2181,0.2209,0.2216,0.223,0.2247,0.2252,0.2254,0.2256,0.2278,0.2281,0.2283,0.2338,0.23,0.23,0.2301,0.234,0.2341,0.2341,0,0,0,0,0,0,0.2129,0.2138,0.2198,0.2169,0.2177,0.2211,0.2226,0.223,0.2243,0.2261,0.2265,0.2265,0.2279,0.2282,0.2305,0.2337,0.23,0.2301,0.2339,0.234,0.2341,0.2397,0,0,0,0,0,0,0.2126,0.2137,0.2142,0.217,0.218,0.2209,0.2225,0.223,0.2252,0.2255,0.2271,0.2275,0.228,0.2304,0.2305,0.2337,0.2301,0.2338,0.2339,0.2341,0.2394,0.24,0.2405,0,0,0,0,0,0.2122,0.213,0.2142,0.2151,0.2189,0.221,0.2213,0.2236,0.2251,0.2252,0.2275,0.2276,0.2315,0.2305,0.2306,0.2338,0.2337,0.2339,0.234,0.2391,0.2398,0.2404,0,0,0,0,0,0,0.2083,0.2135,0.2149,0.217,0.2192,0.2218,0.2228,0.2241,0.2256,0.227,0.228,0.2285,0.2323,0.2314,0.2303,0.2354,0.2328,0.233,0.2366,0.2373,0.2378,0.2398,0.2301,0,0,0,0,0,0.2079,0.2105,0.2141,0.216,0.2175,0.2201,0.2212,0.2232,0.2255,0.2263,0.2281,0.2302,0.2325,0.2337,0.2351,0.2368,0.2383,0.239,0.2396,0.2401,0.2417,0.2448,0.2458,0.2348,0.2348,0.2347,0,0,0.2072,0.2104,0.2119,0.2154,0.2177,0.2208,0.221,0.2239,0.227,0.2265,0.231,0.2322,0.2335,0.2368,0.2383,0.2368,0.2444,0.2403,0.2407,0.2421,0.2451,0.2462,0.2472,0.2349,0.2349,0.2348,0,0,0.2082,0.21,0.213,0.215,0.2194,0.2214,0.2227,0.2263,0.2283,0.2318,0.2335,0.2368,0.2389,0.2414,0.2427,0.2466,0.2474,0.2467,0.251,0.2539,0.2549,0.2558,0.2611,0.2624,0.2466,0.2467,0.2467,0,0.2073,0.2117,0.2137,0.217,0.22,0.2223,0.2262,0.228,0.2319,0.2349,0.2344,0.2416,0.2418,0.248,0.2493,0.2482,0.2504,0.2486,0.2548,0.2557,0.2565,0.2617,0.263,0.2469,0.2469,0.2469,0.2469,0,0.2104,0.2143,0.2162,0.2222,0.2246,0.2281,0.232,0.235,0.2382,0.2411,0.2478,0.2487,0.2534,0.2536,0.2526,0.2589,0.259,0.2555,0.2534,0.258,0.2631,0.2644,0.2474,0.2473,0.2472,0.2471,0,0,0.2088,0.2171,0.218,0.2222,0.228,0.2307,0.2365,0.2426,0.2474,0.2513,0.2577,0.2618,0.2632,0.2647,0.2644,0.2661,0.2732,0.2632,0.2632,0.2691,0.2821,0.28,0.2812,0.2705,0.2707,0.2709,0.2842,0,0.2114,0.2179,0.2223,0.2298,0.2337,0.2386,0.2432,0.2488,0.2534,0.2591,0.263,0.268,0.2672,0.2691,0.2718,0.2723,0.2766,0.27,0.2763,0.2766,0.2746,0.2826,0.2609,0.2707,0.2855,0.2857,0.2859,0,0.213,0.2178,0.2243,0.2345,0.2369,0.241,0.2501,0.2552,0.2631,0.2665,0.2738,0.2763,0.2829,0.2784,0.2873,0.2832,0.2844,0.2843,0.2847,0.2817,0.2768,0.2681,0.2725,0.2881,0.2879,0.2877,0.2876,0,0.2091,0.22,0.2253,0.2282,0.2384,0.2429,0.2489,0.257,0.2625,0.2712,0.2763,0.2844,0.2893,0.2921,0.2957,0.2912,0.3039,0.2971,0.2981,0.298,0.2805,0.2785,0.3039,0.3039,0.3039,0.3039,0.3038,0,0.2087,0.2139,0.2238,0.226,0.2342,0.2413,0.2493,0.2564,0.2651,0.2727,0.28,0.2883,0.2925,0.3007,0.3005,0.3065,0.3097,0.3023,0.302,0.282,0.2801,0.2943,0.293,0.3044,0.3042,0.3041,0.3041,0,0.2025,0.2091,0.2161,0.2272,0.232,0.2366,0.2497,0.2535,0.2644,0.2744,0.2777,0.293,0.305,0.3109,0.3171,0.3143,0.3173,0.3184,0.2968,0.2937,0.3082,0.307,0.3201,0.3201,0.3201,0.3202,0.3202,0,0.1995,0.2019,0.2147,0.218,0.2232,0.232,0.2365,0.2502,0.2544,0.2781,0.2812,0.3,0.3075,0.3205,0.3215,0.3247,0.3262,0.3043,0.2906,0.3119,0.3102,0.3089,0.3077,0.2706,0.2702,0.2699,0.2696,0,0.1937,0.1977,0.2027,0.2099,0.2157,0.2235,0.232,0.2365,0.2527,0.261,0.2749,0.2839,0.3044,0.2998,0.3094,0.3073,0.3011,0.2982,0.3268,0.2698,0.2662,0.2642,0.2645,0.2668,0.2671,0.2673,0.2675,0.2676,0.1887,0.1901,0.1959,0.2022,0.2082,0.213,0.2156,0.2234,0.231,0.2431,0.2586,0.2652,0.2767,0.2799,0.2766,0.2772,0.2949,0.2785,0.279,0.28,0.2718,0.2684,0.2682,0.2685,0.2687,0.2689,0.2691,0,0.1832,0.1856,0.1886,0.1958,0.1978,0.2056,0.2104,0.2082,0.2116,0.2252,0.2318,0.2214,0.2256,0.2392,0.2365,0.2388,0.2314,0.2291,0.2159,0.2192,0.222,0.2101,0.1906,0.1903,0.19,0.1897,0,0,0.1805,0.1812,0.1825,0.1846,0.1896,0.1886,0.1896,0.1853,0.1885,0.1879,0.1915,0.2112,0.2283,0.2025,0.2048,0.1962,0.2038,0.1897,0.2539,0.2414,0.2436,0.2538,0.24,0,0,0,0,0]},{"header":{"parameterUnit":"m.s-1","parameterCategory":2,"la1":30.2991,"la2":30.254,"lo1":-89.0895,"lo2":-89.0444,"dy":0.0017,"dx":0.0017,"nx":28,"ny":28,"refTime":"2025-11-06T09:00:00:Z","depth":"2","parameterNumber":3,"parameterNumberName":"V-component_of_CURRENTS"},"data":[0,0,0,0,0,0,0,0,0,0,0,0,0,0,0,0,0,0,0,0,0,0,0,0,0,0,0,0,0,0,0,0,0,0,0,0,0,0,0,0,0,0,0,0,0,0,0,0,0,0,0,0,0,0,0,0,0,0,-0.0034,-0.0035,0,-0.0103,-0.0103,-0.0104,-0.0164,-0.0165,-0.0166,-0.0167,-0.0292,-0.0294,-0.0296,0,0,0,0,0,0,0,0,0,0,0,0,0,0.0015,0.0015,-0.0034,-0.0035,-0.0036,-0.0103,-0.0103,-0.0104,-0.0164,-0.0165,-0.0167,-0.0168,-0.0291,-0.0294,-0.0297,0,0,0,0,0,0,0,0,0,0,0,0,0,-0.0022,0.0015,-0.0034,-0.0077,-0.0081,-0.0103,-0.0103,-0.0104,-0.0164,-0.0165,-0.0167,-0.0168,-0.029,-0.0293,-0.0297,-0.029,0,0,-0.0308,-0.031,0,0,0,0,0,0,0,0,-0.002,-0.0024,-0.0069,-0.0074,-0.0079,-0.0129,-0.0132,-0.017,-0.0164,-0.0129,-0.0167,-0.0169,-0.0243,-0.0251,-0.0256,-0.0296,-0.0301,-0.0308,-0.0311,-0.0312,-0.0313,0,0,0,0,0,0,0,-0.0017,-0.0021,-0.0058,-0.007,-0.0076,-0.0103,-0.0109,-0.0139,-0.0176,-0.0133,-0.0138,-0.015,-0.0246,-0.0252,-0.0259,-0.0303,-0.0308,-0.0311,-0.0314,-0.0315,-0.0391,-0.0391,0,0,0,0,0,0,-0.0012,-0.0018,-0.0056,-0.0061,-0.0056,-0.0103,-0.011,-0.0109,-0.0175,-0.0187,-0.0148,-0.0152,-0.0245,-0.0255,-0.0264,-0.0299,-0.0312,-0.0315,-0.0318,-0.0392,-0.0391,-0.0391,0,0,0,0,0,0,-0.001,-0.0014,-0.0054,-0.0045,-0.0052,-0.0102,-0.0101,-0.011,-0.0129,-0.0187,-0.0199,-0.0161,-0.0246,-0.0259,-0.0297,-0.0303,-0.0317,-0.032,-0.0392,-0.0391,-0.0391,-0.0344,0,0,0,0,0,0,-0.0008,-0.0012,-0.0007,-0.0043,-0.0052,-0.0059,-0.01,-0.011,-0.0135,-0.0141,-0.0201,-0.0213,-0.0249,-0.0292,-0.0301,-0.0308,-0.0323,-0.0392,-0.0392,-0.0391,-0.0346,-0.0342,-0.0339,0,0,0,0,0,-0.0006,0.0006,-0.0006,-0.0011,-0.0044,-0.0058,-0.0064,-0.0103,-0.0134,-0.0128,-0.0179,-0.0212,-0.0297,-0.0294,-0.0305,-0.0314,-0.0392,-0.0392,-0.0391,-0.0347,-0.0343,-0.0339,0,0,0,0,0,0,0.0028,0.0,-0.0014,-0.0012,-0.003,-0.0069,-0.0076,-0.0102,-0.0136,-0.0154,-0.0208,-0.0223,-0.026,-0.0289,-0.0284,-0.0334,-0.035,-0.0352,-0.0313,-0.031,-0.0306,-0.0308,-0.0326,0,0,0,0,0,0.004,0.0039,0.0012,0.0012,0.0005,-0.0035,-0.0048,-0.0075,-0.0112,-0.0129,-0.0176,-0.0225,-0.0262,-0.0288,-0.0322,-0.0347,-0.0373,-0.036,-0.0357,-0.0354,-0.0362,-0.039,-0.039,-0.039,-0.039,-0.039,0,0,0.0047,0.0033,0.003,0.0018,-0.0004,-0.0011,-0.0046,-0.0066,-0.0077,-0.0138,-0.0172,-0.0215,-0.0266,-0.0296,-0.0315,-0.0324,-0.0366,-0.0353,-0.035,-0.036,-0.039,-0.039,-0.039,-0.039,-0.039,-0.039,0,0,0.0064,0.0056,0.0062,0.0055,0.0029,0.0002,-0.0003,-0.0042,-0.006,-0.0094,-0.0142,-0.019,-0.0245,-0.0283,-0.0309,-0.0308,-0.0345,-0.0317,-0.0307,-0.0333,-0.0333,-0.0334,-0.0358,-0.0362,-0.0318,-0.0317,-0.0317,0,0.0074,0.0082,0.0062,0.0069,0.0059,0.0009,0.0012,-0.0009,-0.0059,-0.0068,-0.0102,-0.02,-0.0242,-0.0286,-0.0288,-0.0303,-0.032,-0.0316,-0.0328,-0.033,-0.0331,-0.0356,-0.0361,-0.0315,-0.0315,-0.0316,-0.0316,0,0.0103,0.0105,0.0107,0.0096,0.0087,0.0081,0.0049,0.0032,-0.0012,-0.0039,-0.0092,-0.0163,-0.0223,-0.0241,-0.0269,-0.03,-0.0309,-0.0317,-0.0336,-0.0328,-0.0355,-0.036,-0.0312,-0.0313,-0.0313,-0.0314,0,0,0.0133,0.0129,0.0129,0.0134,0.0102,0.0099,0.0081,0.0062,0.0055,-0.0015,-0.003,-0.0122,-0.0172,-0.0206,-0.0255,-0.0287,-0.0311,-0.0304,-0.0307,-0.0325,-0.0366,-0.0346,-0.035,-0.0316,-0.0316,-0.0317,-0.0377,0,0.0159,0.0191,0.0167,0.0174,0.0188,0.0144,0.0142,0.0117,0.0074,0.0054,-0.0031,-0.0071,-0.0153,-0.0184,-0.0235,-0.0288,-0.0323,-0.0294,-0.0375,-0.0378,-0.0358,-0.0355,-0.0345,-0.0396,-0.0383,-0.0384,-0.0384,0,0.0198,0.0215,0.0242,0.0237,0.0238,0.0227,0.0211,0.0198,0.016,0.0133,0.0053,-0.0007,-0.0092,-0.0143,-0.0276,-0.0251,-0.0308,-0.0354,-0.0357,-0.0363,-0.0368,-0.0405,-0.0406,-0.0393,-0.0393,-0.0392,-0.0391,0,0.0257,0.0262,0.0286,0.0288,0.0276,0.0274,0.0256,0.0226,0.0238,0.0178,0.0172,0.0048,0.0006,-0.0114,-0.0231,-0.0253,-0.034,-0.0381,-0.0423,-0.0423,-0.0444,-0.0443,-0.0456,-0.0456,-0.0455,-0.0455,-0.0455,0,0.0306,0.032,0.0318,0.0336,0.0363,0.0333,0.0351,0.0318,0.0308,0.035,0.0208,0.0212,0.0017,-0.0058,-0.0193,-0.0319,-0.0321,-0.0426,-0.0438,-0.0426,-0.0423,-0.0447,-0.0445,-0.0457,-0.0457,-0.0457,-0.0456,0,0.0362,0.0361,0.0392,0.0395,0.0392,0.0414,0.0422,0.0455,0.0412,0.0458,0.0448,0.035,0.0238,0.0053,-0.0104,-0.0243,-0.0374,-0.0405,-0.0375,-0.0382,-0.0458,-0.0454,-0.0503,-0.0503,-0.0503,-0.0502,-0.0502,0,0.0393,0.0419,0.0443,0.0474,0.0469,0.0497,0.0536,0.0513,0.0567,0.0563,0.0616,0.0516,0.0476,0.0214,-0.0039,-0.0284,-0.0309,-0.0414,-0.0468,-0.0457,-0.0464,-0.0459,-0.0455,-0.0482,-0.0482,-0.0482,-0.0482,0,0.0446,0.0454,0.0483,0.0556,0.0597,0.0651,0.0705,0.077,0.0785,0.0814,0.0864,0.0822,0.0571,0.0319,-0.001,-0.0175,-0.0393,-0.0417,-0.041,-0.0458,-0.0439,-0.0445,-0.0441,-0.048,-0.048,-0.048,-0.048,-0.048,0.0475,0.0518,0.0566,0.0632,0.0697,0.0799,0.0865,0.0951,0.1039,0.1096,0.1063,0.0993,0.0698,0.0259,-0.0029,-0.0344,-0.0349,-0.0477,-0.0477,-0.0478,-0.0451,-0.0431,-0.0466,-0.0466,-0.0467,-0.0467,-0.0467,0,0.052,0.0567,0.064,0.0728,0.0829,0.0846,0.098,0.1053,0.1182,0.1228,0.1233,0.0955,0.0655,0.0328,-0.0147,-0.0429,-0.0472,-0.0506,-0.0512,-0.0511,-0.0511,-0.0487,-0.0512,-0.0512,-0.0513,-0.0514,0,0,0.0543,0.062,0.0664,0.0819,0.0898,0.1033,0.112,0.121,0.1267,0.1308,0.127,0.1153,0.0757,0.0412,0.002,-0.0245,-0.031,-0.0293,-0.0231,-0.0192,-0.0188,-0.0471,-0.0429,0,0,0,0,0]}],[{"header":{"parameterUnit":"m.s-1","parameterCategory":2,"la1":30.2991,"la2":30.254,"lo1":-89.0895,"lo2":-89.0444,"dy":0.0017,"dx":0.0017,"nx":28,"ny":28,"refTime":"2025-11-06T09:00:00:Z","depth":"4","parameterNumber":2,"parameterNumberName":"U-component_of_CURRENTS"},"data":[0,0,0,0,0,0,0,0,0,0,0,0,0,0,0,0,0,0,0,0,0,0,0,0,0,0,0,0,0,0,0,0,0,0,0,0,0,0,0,0,0,0,0,0,0,0,0,0,0,0,0,0,0,0,0,0,0,0,0.118,0.118,0,0.1239,0.124,0.1241,0.1279,0.1279,0.1279,0.1279,0.1358,0.136,0.1362,0,0,0,0,0,0,0,0,0,0,0,0,0,0.1132,0.1133,0.118,0.118,0.1181,0.1239,0.124,0.1241,0.1279,0.1279,0.1279,0.1279,0.1357,0.136,0.1362,0,0,0,0,0,0,0,0,0,0,0,0,0,0.117,0.1133,0.118,0.1205,0.1208,0.1239,0.124,0.1241,0.1279,0.1279,0.1279,0.1279,0.1356,0.1359,0.1362,0.1381,0,0,0.1372,0.1373,0,0,0,0,0,0,0,0,0.1168,0.1172,0.1201,0.1203,0.1207,0.125,0.1252,0.1288,0.1279,0.1254,0.1279,0.1279,0.1322,0.1328,0.1342,0.1384,0.1388,0.1372,0.1374,0.1375,0.1376,0,0,0,0,0,0,0,0.1165,0.117,0.1206,0.1201,0.1205,0.1225,0.123,0.1259,0.1289,0.1256,0.1259,0.1262,0.1324,0.1339,0.1344,0.1389,0.1372,0.1375,0.1377,0.1378,0.1505,0.1507,0,0,0,0,0,0,0.1152,0.1168,0.1204,0.1207,0.1185,0.1225,0.1232,0.1238,0.1288,0.1296,0.1262,0.1263,0.1333,0.134,0.1347,0.1421,0.1375,0.1378,0.138,0.1504,0.1506,0.1507,0,0,0,0,0,0,0.1151,0.1155,0.1201,0.1187,0.1194,0.1226,0.1233,0.1239,0.128,0.1292,0.13,0.13,0.1334,0.1342,0.1389,0.1422,0.138,0.1382,0.1502,0.1504,0.1506,0.1536,0,0,0,0,0,0,0.1149,0.1154,0.1167,0.1186,0.1194,0.123,0.1232,0.124,0.1279,0.1283,0.1327,0.1332,0.1334,0.1384,0.1392,0.1425,0.1385,0.15,0.1503,0.1506,0.1533,0.1539,0.1544,0,0,0,0,0,0.1148,0.1157,0.1168,0.1173,0.1207,0.1231,0.1238,0.1261,0.1281,0.1301,0.133,0.1332,0.1408,0.1388,0.1396,0.1432,0.1499,0.1502,0.1505,0.1531,0.1538,0.1544,0,0,0,0,0,0,0.1146,0.1162,0.1174,0.119,0.1215,0.1236,0.126,0.1281,0.1322,0.1336,0.135,0.1358,0.1407,0.142,0.1398,0.1478,0.1455,0.146,0.1472,0.1479,0.1484,0.1492,0.1387,0,0,0,0,0,0.115,0.1165,0.1183,0.1202,0.1216,0.1248,0.1268,0.1286,0.1316,0.1336,0.1363,0.1397,0.1425,0.1452,0.1472,0.1524,0.1539,0.1553,0.1559,0.1563,0.1577,0.1623,0.1633,0.1518,0.1518,0.1518,0,0,0.1154,0.1168,0.1177,0.1204,0.123,0.1253,0.1262,0.13,0.1326,0.1338,0.1392,0.1415,0.1441,0.1486,0.1512,0.1506,0.1604,0.1568,0.1571,0.1582,0.1627,0.1639,0.1649,0.1521,0.152,0.152,0,0,0.116,0.1186,0.1197,0.1221,0.1258,0.1278,0.1295,0.1333,0.1359,0.1408,0.1421,0.1465,0.1516,0.1536,0.1553,0.1608,0.1624,0.1625,0.1671,0.1715,0.1725,0.1734,0.1763,0.1775,0.1637,0.1637,0.1637,0,0.1165,0.1182,0.1207,0.1226,0.1247,0.1292,0.1312,0.1347,0.1396,0.1426,0.1429,0.1522,0.1536,0.1598,0.1616,0.162,0.1649,0.164,0.1722,0.1731,0.1739,0.1768,0.178,0.1639,0.1639,0.1639,0.1638,0,0.1172,0.1198,0.1212,0.1249,0.1276,0.1307,0.1346,0.1391,0.1434,0.1468,0.1543,0.1571,0.163,0.1643,0.1648,0.1725,0.1726,0.1714,0.1702,0.1753,0.1779,0.1791,0.1642,0.1641,0.164,0.164,0,0,0.1145,0.1203,0.121,0.1232,0.1292,0.1313,0.1369,0.1426,0.148,0.1538,0.1603,0.1658,0.1696,0.1719,0.174,0.1785,0.1858,0.1788,0.1789,0.1812,0.1963,0.1858,0.186,0.187,0.1872,0.1874,0.1956,0,0.1145,0.1177,0.1209,0.1254,0.1274,0.1335,0.1381,0.1446,0.1512,0.1588,0.1647,0.1719,0.1719,0.1765,0.181,0.1849,0.1893,0.1837,0.1916,0.1919,0.1813,0.1871,0.1882,0.1965,0.1967,0.1969,0.1971,0,0.1135,0.1159,0.1194,0.1257,0.1274,0.1319,0.1413,0.1463,0.1579,0.1635,0.1729,0.1778,0.187,0.1853,0.196,0.1932,0.1958,0.1978,0.1982,0.1882,0.1835,0.1906,0.1992,0.1991,0.1989,0.1988,0.1986,0,0.1094,0.1148,0.1178,0.1199,0.1278,0.1323,0.1382,0.149,0.1547,0.1688,0.1752,0.1858,0.1932,0.1984,0.2036,0.2015,0.214,0.2103,0.203,0.2022,0.2078,0.2068,0.2174,0.2173,0.2173,0.2173,0.2173,0,0.107,0.1097,0.1171,0.1191,0.1242,0.1312,0.1392,0.1475,0.1598,0.1675,0.1786,0.1858,0.1976,0.2053,0.2073,0.2095,0.2172,0.2052,0.2043,0.2087,0.2078,0.2086,0.2074,0.2176,0.2175,0.2175,0.2174,0,0.1023,0.1071,0.1112,0.1198,0.1228,0.1275,0.1392,0.1452,0.1583,0.1691,0.1743,0.1899,0.2005,0.2091,0.2189,0.2139,0.2164,0.2149,0.2206,0.2196,0.2005,0.1995,0.2068,0.2065,0.2062,0.206,0.2059,0,0.1,0.1014,0.1105,0.1135,0.1184,0.1258,0.1309,0.1439,0.1512,0.169,0.174,0.1896,0.1981,0.2039,0.2129,0.2175,0.2151,0.2143,0.2058,0.2014,0.1999,0.1992,0.1985,0.2055,0.2054,0.2053,0.2053,0,0.0951,0.0997,0.1032,0.1091,0.1151,0.1198,0.1295,0.1332,0.1484,0.1606,0.1707,0.1773,0.1897,0.1979,0.2047,0.2063,0.2133,0.2116,0.212,0.2041,0.1999,0.1985,0.1981,0.2044,0.2045,0.2046,0.2047,0,0.092,0.0932,0.0987,0.1032,0.1097,0.1133,0.1183,0.127,0.1348,0.1552,0.1577,0.1735,0.1876,0.1922,0.197,0.2,0.1963,0.1886,0.1901,0.1911,0.1824,0.1746,0.172,0,0,0,0,0,0.0877,0.0885,0.0921,0.0963,0.1023,0.106,0.1171,0.1229,0.1367,0.1406,0.1493,0.1594,0.1689,0.1772,0.1775,0.1901,0.1967,0.1895,0.1883,0.1997,0.2007,0.1919,0,0,0,0,0,0,0.0849,0.0881,0.0894,0.0896,0.0908,0.0961,0.1025,0.1116,0.1156,0.1307,0.1378,0.1491,0.162,0.1673,0.174,0.1766,0.1726,0.1997,0.1993,0.1991,0.2,0.2008,0.1921,0,0,0,0,0]},{"header":{"parameterUnit":"m.s-1","parameterCategory":2,"la1":30.2991,"la2":30.254,"lo1":-89.0895,"lo2":-89.0444,"dy":0.0017,"dx":0.0017,"nx":28,"ny":28,"refTime":"2025-11-06T09:00:00:Z","depth":"4","parameterNumber":3,"parameterNumberName":"V-component_of_CURRENTS"},"data":[0,0,0,0,0,0,0,0,0,0,0,0,0,0,0,0,0,0,0,0,0,0,0,0,0,0,0,0,0,0,0,0,0,0,0,0,0,0,0,0,0,0,0,0,0,0,0,0,0,0,0,0,0,0,0,0,0,0,0.0238,0.0237,0,0.0197,0.0197,0.0196,0.0171,0.0171,0.0172,0.0172,0.0086,0.0083,0.0081,0,0,0,0,0,0,0,0,0,0,0,0,0,0.0235,0.0236,0.0238,0.0237,0.0237,0.0197,0.0197,0.0196,0.0171,0.0171,0.0172,0.0172,0.0086,0.0084,0.0081,0,0,0,0,0,0,0,0,0,0,0,0,0,0.0218,0.0236,0.0238,0.0222,0.022,0.0198,0.0197,0.0196,0.0171,0.0171,0.0172,0.0172,0.0087,0.0084,0.008,0.0055,0,0,0.0069,0.0068,0,0,0,0,0,0,0,0,0.0219,0.0218,0.0225,0.0223,0.0221,0.0192,0.0164,0.0147,0.0171,0.0187,0.0172,0.0172,0.0118,0.0112,0.0101,0.0051,0.0048,0.0069,0.0067,0.0065,0.0064,0,0,0,0,0,0,0,0.022,0.0219,0.0219,0.0224,0.0222,0.0197,0.0195,0.0161,0.015,0.0186,0.0185,0.0184,0.0117,0.0105,0.0099,0.0046,0.0069,0.0066,0.0064,0.0062,-0.0002,-0.0001,0,0,0,0,0,0,0.0233,0.022,0.0221,0.0218,0.0223,0.0197,0.0195,0.0199,0.0151,0.0145,0.0184,0.0183,0.0111,0.0103,0.0096,0.0109,0.0065,0.0062,0.006,-0.0002,-0.0001,-0.0001,0,0,0,0,0,0,0.0233,0.0234,0.0222,0.022,0.0217,0.0198,0.0202,0.0198,0.0191,0.0151,0.0143,0.0182,0.0111,0.0101,0.008,0.0104,0.006,0.0057,-0.0002,-0.0002,-0.0001,0.0106,0,0,0,0,0,0,0.0233,0.0234,0.0238,0.0221,0.0218,0.0224,0.0202,0.0197,0.0191,0.019,0.0146,0.0138,0.011,0.0085,0.0076,0.0098,0.0054,-0.0003,-0.0002,-0.0001,0.0102,0.0111,0.0118,0,0,0,0,0,0.0233,0.0244,0.0239,0.0238,0.0225,0.0225,0.0221,0.0205,0.0191,0.0197,0.0168,0.014,0.0084,0.0083,0.0072,0.0094,-0.0003,-0.0002,-0.0001,0.0099,0.0109,0.0118,0,0,0,0,0,0,0.0241,0.0242,0.0236,0.0245,0.0242,0.0222,0.0225,0.0209,0.0189,0.0186,0.0143,0.0133,0.0125,0.0088,0.0088,0.0076,0.0036,0.0035,0.0116,0.0125,0.0133,0.0158,0.0051,0,0,0,0,0,0.0246,0.0259,0.0251,0.026,0.0262,0.0242,0.0238,0.0229,0.021,0.0202,0.0173,0.014,0.0119,0.0106,0.0078,0.0067,0.0024,0.0073,0.0081,0.0088,0.0099,0.0053,0.0058,0.0002,0.0002,0.0002,0,0,0.0251,0.0254,0.026,0.0263,0.0258,0.0274,0.024,0.0243,0.0258,0.0194,0.0202,0.0165,0.0121,0.0119,0.0111,0.0092,0.008,0.0089,0.0096,0.0103,0.0055,0.006,0.0065,0.0003,0.0003,0.0003,0,0,0.0276,0.0273,0.0295,0.0301,0.0304,0.0296,0.0301,0.0288,0.0286,0.0284,0.0247,0.0229,0.0188,0.0173,0.0157,0.0185,0.0122,0.0169,0.0231,0.0187,0.0191,0.0195,0.0148,0.0147,0.0174,0.0174,0.0174,0,0.0281,0.031,0.03,0.0325,0.0341,0.0313,0.0344,0.0338,0.032,0.0322,0.0301,0.0256,0.0221,0.0223,0.0238,0.0207,0.0163,0.0204,0.0199,0.0201,0.0203,0.0154,0.0151,0.018,0.0179,0.0178,0.0178,0,0.0323,0.035,0.0366,0.0396,0.0408,0.043,0.0429,0.0434,0.0422,0.0411,0.0408,0.0362,0.0334,0.0323,0.0291,0.0291,0.0249,0.0215,0.0181,0.0216,0.0161,0.0156,0.0187,0.0185,0.0184,0.0182,0,0,0.0332,0.0386,0.0394,0.0424,0.0451,0.0464,0.0498,0.0517,0.0527,0.0512,0.0525,0.05,0.0463,0.0441,0.0396,0.0366,0.0343,0.0303,0.0298,0.0268,0.0236,0.0181,0.0169,0.0301,0.0301,0.0301,0.0194,0,0.0372,0.0433,0.0457,0.0521,0.0553,0.0561,0.0592,0.0602,0.0595,0.0594,0.0562,0.0546,0.0511,0.049,0.0462,0.0364,0.0333,0.0374,0.0197,0.0192,0.0148,0.0163,0.03,0.019,0.0189,0.0188,0.0187,0,0.0408,0.0447,0.0516,0.0585,0.0601,0.0637,0.0676,0.07,0.0697,0.0685,0.0673,0.0629,0.0599,0.055,0.0435,0.0457,0.0364,0.0291,0.0284,0.0193,0.0127,0.0145,0.0177,0.0178,0.0179,0.0179,0.018,0,0.0411,0.0493,0.0551,0.0575,0.064,0.0678,0.0711,0.0726,0.0745,0.0735,0.0726,0.0686,0.0642,0.0548,0.0406,0.0412,0.0256,0.0238,0.0108,0.0102,0.0137,0.0134,0.0159,0.0159,0.0159,0.016,0.016,0,0.0442,0.049,0.0557,0.0588,0.0654,0.0697,0.0754,0.0769,0.0788,0.0797,0.0769,0.0743,0.0633,0.0532,0.0418,0.0242,0.026,0.0123,0.0073,0.0183,0.0187,0.0133,0.0132,0.0155,0.0156,0.0157,0.0158,0,0.0437,0.0481,0.0547,0.0627,0.0657,0.07,0.0785,0.0812,0.0825,0.0832,0.0829,0.077,0.0635,0.0512,0.0331,0.0236,0.0085,0.0015,0.014,0.0098,-0.0037,-0.0032,-0.0123,-0.0126,-0.0128,-0.013,-0.0132,0,0.044,0.0472,0.0561,0.0598,0.0643,0.0715,0.0761,0.0816,0.0841,0.0835,0.0828,0.0723,0.0659,0.0381,0.0248,0.0031,-0.0005,-0.008,-0.004,-0.0026,-0.0065,-0.0056,-0.0048,-0.0136,-0.0136,-0.0137,-0.0137,0,0.0443,0.047,0.052,0.0589,0.0651,0.0722,0.0793,0.0812,0.0855,0.0869,0.0802,0.0682,0.0523,0.0349,0.017,0.0018,-0.0022,-0.0105,-0.01,-0.0063,-0.0042,-0.0077,-0.0066,-0.0146,-0.0145,-0.0144,-0.0143,0,0.0434,0.046,0.0517,0.0579,0.0652,0.071,0.0756,0.0787,0.0815,0.0817,0.0781,0.0644,0.0573,0.0337,0.0175,0.0019,-0.0011,-0.0053,-0.0051,-0.0044,0.0012,0.0052,-0.0062,0,0,0,0,0,0.0422,0.045,0.0505,0.0573,0.0643,0.069,0.0767,0.0806,0.0844,0.0792,0.0793,0.0648,0.0413,0.0323,0.0156,0.0127,-0.0041,-0.0076,-0.0089,-0.0191,-0.0182,-0.0135,0,0,0,0,0,0,0.0413,0.046,0.0492,0.0556,0.0601,0.0679,0.0731,0.076,0.074,0.0753,0.0635,0.0591,0.037,0.0502,0.0146,0.0101,0.0066,-0.0173,-0.0178,-0.0197,-0.0188,-0.018,-0.0129,0,0,0,0,0]}]]